[[{"header":{"parameterUnit":"m.s-1","parameterCategory":1,"la1":30.2991,"la2":30.254,"lo1":-89.0895,"lo2":-89.0444,"dy":0.0017,"dx":0.0017,"nx":28,"ny":28,"refTime":"2023-10-11T09:00:00:Z","depth":0,"parameterNumber":2,"parameterNumberName":"U-component_of_WINDS"},"data":[0,0,0,0,0,0,0,0,0,0,0,0,0,0,0,0,0,0,0,0,0,0,0,0,0,0,0,0,0,0,0,0,0,0,0,0,0,0,0,0,0,0,0,0,0,0,0,0,0,0,0,0,0,0,0,0,0,0,-5.3844,-5.3846,0,-5.4011,-5.4013,-5.4015,-5.389,-5.3884,-5.3879,-5.3873,-5.4049,-5.4059,-5.4068,0,0,0,0,0,0,0,0,0,0,0,0,0,-5.3422,-5.3431,-5.3844,-5.3846,-5.3848,-5.401,-5.4013,-5.4015,-5.389,-5.3884,-5.3877,-5.3871,-5.4046,-5.4057,-5.4069,0,0,0,0,0,0,0,0,0,0,0,0,0,-5.3599,-5.3433,-5.3843,-5.3805,-5.3803,-5.401,-5.4013,-5.4016,-5.3892,-5.3884,-5.3875,-5.3868,-5.4042,-5.4056,-5.4071,-5.4325,0,0,-5.4116,-5.4122,0,0,0,0,0,0,0,0,-5.3589,-5.3615,-5.3809,-5.3808,-5.3807,-5.3921,-5.3928,-5.412,-5.3894,-5.3859,-5.3873,-5.3864,-5.4013,-5.403,-5.4079,-5.4334,-5.4341,-5.4117,-5.4126,-5.4132,-5.4136,0,0,0,0,0,0,0,-5.3577,-5.3607,-5.391,-5.3812,-5.381,-5.3781,-5.3798,-5.3964,-5.398,-5.3861,-5.3852,-5.3873,-5.4011,-5.4066,-5.4083,-5.4344,-5.4116,-5.4129,-5.4139,-5.4144,-5.4819,-5.4828,0,0,0,0,0,0,-5.3568,-5.3597,-5.3904,-5.3915,-5.3675,-5.3796,-5.3814,-5.3893,-5.3978,-5.3983,-5.388,-5.3867,-5.4045,-5.4066,-5.4088,-5.4396,-5.4132,-5.4146,-5.4154,-5.481,-5.4821,-5.4831,0,0,0,0,0,0,-5.3559,-5.3596,-5.3898,-5.3754,-5.379,-5.3812,-5.3901,-5.39,-5.3954,-5.3992,-5.3995,-5.3933,-5.4039,-5.4068,-5.4268,-5.44,-5.4152,-5.4166,-5.4799,-5.4814,-5.4826,-5.501,0,0,0,0,0,0,-5.3548,-5.3594,-5.369,-5.3757,-5.3798,-5.4074,-5.3909,-5.3909,-5.3979,-5.3964,-5.4042,-5.4047,-5.4035,-5.4247,-5.4283,-5.4415,-5.4177,-5.4788,-5.4806,-5.4822,-5.4993,-5.5028,-5.5059,0,0,0,0,0,-5.3533,-5.3735,-5.3695,-5.3733,-5.3918,-5.4081,-5.4105,-5.4085,-5.399,-5.4088,-5.4113,-5.4045,-5.4379,-5.4268,-5.4308,-5.4447,-5.478,-5.4801,-5.4821,-5.4978,-5.5021,-5.5058,0,0,0,0,0,0,-5.3683,-5.3743,-5.37,-5.3929,-5.4001,-5.406,-5.4182,-5.4132,-5.4233,-5.4215,-5.4186,-5.4205,-5.4417,-5.4451,-5.4327,-5.47,-5.4564,-5.4594,-5.467,-5.4712,-5.4745,-5.4734,-5.4189,0,0,0,0,0,-5.3743,-5.3869,-5.3915,-5.4113,-5.4151,-5.4161,-5.4231,-5.421,-5.4284,-5.4314,-5.4353,-5.443,-5.4552,-5.4633,-5.4747,-5.4995,-5.5013,-5.5111,-5.5144,-5.5171,-5.5199,-5.5337,-5.5382,-5.4899,-5.4899,-5.4898,0,0,-5.3868,-5.3916,-5.3998,-5.4144,-5.4198,-5.4332,-5.4188,-5.4334,-5.4434,-5.4337,-5.4529,-5.4561,-5.4644,-5.4871,-5.4972,-5.4906,-5.5335,-5.5197,-5.5219,-5.5232,-5.5362,-5.5408,-5.5449,-5.4913,-5.491,-5.4908,0,0,-5.4166,-5.4213,-5.4385,-5.4441,-5.4524,-5.4529,-5.4571,-5.4638,-5.4655,-5.4847,-5.4778,-5.4897,-5.5107,-5.517,-5.523,-5.5553,-5.5496,-5.5591,-5.5767,-5.5902,-5.594,-5.5974,-5.6093,-5.6136,-5.5617,-5.5617,-5.5617,0,-5.4311,-5.4509,-5.448,-5.4634,-5.4702,-5.4618,-5.4794,-5.485,-5.4967,-5.5017,-5.494,-5.5204,-5.5253,-5.5496,-5.5575,-5.5624,-5.5674,-5.5584,-5.5936,-5.597,-5.6001,-5.6115,-5.6159,-5.5628,-5.5627,-5.5626,-5.5625,0,-5.4686,-5.4825,-5.4954,-5.5069,-5.515,-5.5314,-5.5313,-5.54,-5.5371,-5.5385,-5.5584,-5.564,-5.5766,-5.5821,-5.5794,-5.6061,-5.6018,-5.5939,-5.5803,-5.6059,-5.6166,-5.6209,-5.5645,-5.5641,-5.5637,-5.5634,0,0,-5.5086,-5.5182,-5.5231,-5.5283,-5.5368,-5.5476,-5.5637,-5.5759,-5.5836,-5.5919,-5.6056,-5.6236,-5.6164,-5.6232,-5.6211,-5.6329,-5.6587,-5.6236,-5.6238,-5.6304,-5.689,-5.6952,-5.7003,-5.6548,-5.6556,-5.6562,-5.6885,0,-5.5391,-5.5671,-5.565,-5.5916,-5.6045,-5.5968,-5.6108,-5.6178,-5.6195,-5.6309,-5.6328,-5.6459,-5.6351,-5.6393,-5.6505,-5.6532,-5.6705,-5.6508,-5.6679,-5.6686,-5.6666,-5.7058,-5.7124,-5.7425,-5.6926,-5.6933,-5.6938,0,-5.5785,-5.5882,-5.616,-5.6229,-5.6282,-5.6409,-5.6521,-5.663,-5.6707,-5.6712,-5.6789,-5.6749,-5.6914,-5.6771,-5.7001,-5.6867,-5.6935,-5.6959,-5.697,-5.699,-5.6831,-5.7093,-5.752,-5.7568,-5.7002,-5.6997,-5.6992,0,-5.6055,-5.6254,-5.6447,-5.6494,-5.6577,-5.6669,-5.6708,-5.6777,-5.6853,-5.6951,-5.7,-5.7116,-5.7181,-5.7273,-5.7267,-5.7162,-5.7502,-5.7357,-5.7514,-5.7515,-5.7592,-5.7589,-5.8042,-5.7629,-5.7628,-5.7627,-5.7626,0,-5.6401,-5.6575,-5.657,-5.669,-5.6884,-5.6859,-5.7052,-5.7081,-5.7144,-5.7269,-5.7208,-5.7327,-5.7309,-5.743,-5.7425,-5.7619,-5.7647,-5.7659,-5.7656,-5.7667,-5.7667,-5.7715,-5.7696,-5.7639,-5.7637,-5.7634,-5.7632,0,-5.6736,-5.6739,-5.6946,-5.7008,-5.7027,-5.7169,-5.7222,-5.7337,-5.7348,-5.7508,-5.7545,-5.7564,-5.7703,-5.7705,-5.7863,-5.786,-5.8099,-5.807,-5.8073,-5.8069,-5.8228,-5.8215,-5.8733,-5.8801,-5.8339,-5.8343,-5.8347,0,-5.696,-5.7092,-5.7169,-5.7248,-5.7293,-5.7421,-5.7498,-5.7479,-5.7562,-5.7661,-5.7765,-5.7897,-5.8003,-5.8229,-5.8259,-5.8381,-5.8358,-5.8531,-5.8376,-5.8384,-5.8367,-5.8361,-5.8376,-5.8563,-5.8568,-5.8572,-5.8576,0,-5.7357,-5.7352,-5.7465,-5.7581,-5.7674,-5.7764,-5.7846,-5.7915,-5.7905,-5.8002,-5.8143,-5.8225,-5.8387,-5.8522,-5.864,-5.8681,-5.863,-5.8623,-5.8667,-5.8682,-5.8681,-5.8689,-5.8161,-5.8613,-5.8609,-5.8606,-5.8604,-5.8603,-5.7647,-5.7763,-5.7836,-5.7964,-5.8024,-5.8103,-5.8215,-5.8241,-5.8358,-5.8488,-5.8469,-5.8628,-5.8703,-5.8857,-5.8909,-5.9034,-5.8974,-5.9036,-5.9053,-5.907,-5.909,-5.8656,-5.9055,-5.9053,-5.9052,-5.9052,-5.9051,0,-5.8046,-5.8089,-5.8207,-5.8325,-5.8428,-5.8366,-5.8454,-5.8545,-5.8685,-5.8759,-5.8865,-5.9029,-5.9159,-5.9198,-5.9325,-5.9418,-5.9397,-5.9452,-5.9448,-5.9459,-5.9133,-5.9085,-5.9467,-5.9467,-5.9467,-5.9467,-5.9467,-5.9466,-5.8266,-5.846,-5.8464,-5.8688,-5.873,-5.8884,-5.8941,-5.9015,-5.9074,-5.926,-5.9367,-5.9391,-5.9453,-5.9584,-5.9702,-5.971,-5.9762,-5.9828,-5.9827,-5.9523,-5.9482,-5.9442,-5.9397,-5.9838,-5.9838,-6.0143,-6.0146,-6.0148]},{"header":{"parameterUnit":"m.s-1","parameterCategory":1,"la1":30.2991,"la2":30.254,"lo1":-89.0895,"lo2":-89.0444,"dy":0.0017,"dx":0.0017,"nx":28,"ny":28,"refTime":"2023-10-11T09:00:00:Z","depth":0,"parameterNumber":3,"parameterNumberName":"V-component_of_WINDS"},"data":[0,0,0,0,0,0,0,0,0,0,0,0,0,0,0,0,0,0,0,0,0,0,0,0,0,0,0,0,0,0,0,0,0,0,0,0,0,0,0,0,0,0,0,0,0,0,0,0,0,0,0,0,0,0,0,0,0,0,-10.8298,-10.8296,0,-10.8052,-10.8049,-10.8046,-10.7766,-10.7762,-10.7758,-10.7754,-10.7493,-10.749,-10.7487,0,0,0,0,0,0,0,0,0,0,0,0,0,-10.8518,-10.8515,-10.8299,-10.8295,-10.8292,-10.8052,-10.8049,-10.8046,-10.7767,-10.7762,-10.7757,-10.7752,-10.7494,-10.749,-10.7487,0,0,0,0,0,0,0,0,0,0,0,0,0,-10.8362,-10.8514,-10.8299,-10.8125,-10.8106,-10.8053,-10.8049,-10.8045,-10.7768,-10.7762,-10.7755,-10.775,-10.7495,-10.7491,-10.7486,-10.7582,0,0,-10.7472,-10.747,0,0,0,0,0,0,0,0,-10.8371,-10.8354,-10.8153,-10.8136,-10.8116,-10.7934,-10.803,-10.7889,-10.7769,-10.7896,-10.7754,-10.7747,-10.7644,-10.7627,-10.7594,-10.757,-10.7559,-10.7472,-10.7469,-10.7467,-10.7465,0,0,0,0,0,0,0,-10.8382,-10.8363,-10.82,-10.8151,-10.8128,-10.8055,-10.8026,-10.8002,-10.7808,-10.7885,-10.7864,-10.7839,-10.7632,-10.7599,-10.7586,-10.7555,-10.7472,-10.7468,-10.7465,-10.7463,-10.7591,-10.7597,0,0,0,0,0,0,-10.8421,-10.8374,-10.8208,-10.8193,-10.8231,-10.8056,-10.8024,-10.7998,-10.7807,-10.7772,-10.7844,-10.7827,-10.761,-10.7591,-10.7575,-10.7671,-10.7467,-10.7462,-10.746,-10.7585,-10.7592,-10.7599,0,0,0,0,0,0,-10.8427,-10.8409,-10.8218,-10.8278,-10.8248,-10.8059,-10.8033,-10.7997,-10.7963,-10.7777,-10.774,-10.7847,-10.7604,-10.7582,-10.7582,-10.7659,-10.746,-10.7456,-10.7577,-10.7587,-10.7596,-10.7868,0,0,0,0,0,0,-10.8434,-10.8413,-10.845,-10.8281,-10.8246,-10.8233,-10.8037,-10.7996,-10.7957,-10.7931,-10.7769,-10.7736,-10.7598,-10.759,-10.7577,-10.7649,-10.7453,-10.757,-10.7582,-10.7593,-10.7851,-10.7885,-10.7915,0,0,0,0,0,-10.8443,-10.8535,-10.8453,-10.8435,-10.8289,-10.8238,-10.8218,-10.8059,-10.7964,-10.7998,-10.7878,-10.7741,-10.7653,-10.7593,-10.7576,-10.7647,-10.7564,-10.7578,-10.7592,-10.7837,-10.7879,-10.7914,0,0,0,0,0,0,-10.8716,-10.851,-10.8417,-10.8458,-10.8368,-10.8191,-10.8229,-10.8109,-10.8042,-10.8021,-10.7824,-10.7789,-10.7812,-10.7729,-10.7665,-10.7727,-10.7588,-10.76,-10.7781,-10.7819,-10.785,-10.7868,-10.7449,0,0,0,0,0,-10.8782,-10.876,-10.858,-10.8634,-10.8594,-10.8421,-10.8392,-10.8278,-10.8175,-10.8135,-10.8015,-10.7918,-10.7867,-10.7838,-10.7782,-10.7838,-10.7796,-10.7878,-10.791,-10.7937,-10.7948,-10.7967,-10.8,-10.7645,-10.7644,-10.7644,0,0,-10.8915,-10.88,-10.8799,-10.8686,-10.8602,-10.8582,-10.839,-10.8377,-10.8358,-10.8132,-10.8124,-10.8033,-10.7911,-10.7939,-10.7945,-10.7871,-10.8037,-10.7955,-10.7978,-10.7974,-10.7985,-10.8018,-10.8049,-10.7654,-10.7652,-10.7651,0,0,-10.9148,-10.9062,-10.9095,-10.9016,-10.8893,-10.8776,-10.8785,-10.8626,-10.8557,-10.8547,-10.8376,-10.8349,-10.8268,-10.8187,-10.8135,-10.8336,-10.8206,-10.8323,-10.8488,-10.8508,-10.8536,-10.856,-10.8628,-10.8655,-10.8335,-10.8336,-10.8336,0,-10.933,-10.9295,-10.9127,-10.9123,-10.9077,-10.8874,-10.8903,-10.8834,-10.8699,-10.8669,-10.8588,-10.848,-10.8384,-10.8388,-10.8437,-10.8403,-10.8403,-10.834,-10.8547,-10.8569,-10.8588,-10.8651,-10.8677,-10.8351,-10.8349,-10.8347,-10.8346,0,-10.9522,-10.95,-10.9541,-10.9418,-10.9375,-10.939,-10.922,-10.9197,-10.9086,-10.8977,-10.8966,-10.8844,-10.8758,-10.875,-10.8641,-10.8738,-10.8695,-10.8584,-10.844,-10.864,-10.8695,-10.8718,-10.8372,-10.8366,-10.8362,-10.8358,0,0,-10.992,-10.9703,-10.9721,-10.9661,-10.951,-10.9487,-10.949,-10.9408,-10.939,-10.9303,-10.9297,-10.9232,-10.9127,-10.9069,-10.8948,-10.8967,-10.9129,-10.8851,-10.8845,-10.8905,-10.9223,-10.9306,-10.9337,-10.9043,-10.9047,-10.905,-10.9232,0,-11.0124,-11.012,-10.9968,-11.0004,-10.9979,-10.9785,-10.9786,-10.9691,-10.9589,-10.955,-10.9434,-10.9391,-10.9257,-10.922,-10.923,-10.9108,-10.919,-10.9093,-10.9031,-10.9031,-10.9066,-10.9366,-10.9455,-10.9633,-10.9253,-10.9256,-10.9259,0,-11.0362,-11.0291,-11.0327,-11.0171,-11.0155,-11.016,-11.007,-11.0037,-10.9923,-10.9847,-10.9782,-10.9645,-10.9631,-10.9498,-10.9474,-10.9411,-10.9376,-10.9312,-10.9315,-10.9301,-10.9156,-10.9358,-10.9686,-10.9713,-10.9292,-10.9289,-10.9287,0,-11.0646,-11.0559,-11.0567,-11.0522,-11.0342,-11.035,-11.0274,-11.0155,-11.0114,-11.0035,-11.0006,-10.9926,-10.9881,-10.982,-10.9663,-10.9581,-10.9655,-10.9509,-10.9587,-10.9592,-10.9611,-10.9611,-10.9936,-10.9594,-10.9593,-10.9593,-10.9592,0,-11.0889,-11.0917,-11.0692,-11.0698,-11.0722,-11.0545,-11.0572,-11.0477,-11.0373,-11.0353,-11.0179,-11.0163,-10.9958,-10.9917,-10.9794,-10.979,-10.9772,-10.9706,-10.9673,-10.9721,-10.9729,-10.9694,-10.9677,-10.96,-10.9598,-10.9597,-10.9596,0,-11.121,-11.1061,-11.1057,-11.0887,-11.0845,-11.087,-11.0722,-11.0717,-11.0604,-11.0581,-11.0565,-11.0386,-11.0329,-11.0167,-11.0068,-10.9984,-11.0015,-10.9953,-11.0055,-11.0033,-11.0119,-11.0112,-11.043,-11.0461,-11.0104,-11.0107,-11.011,0,-11.1374,-11.1391,-11.1224,-11.1199,-11.1132,-11.1095,-11.1053,-11.0878,-11.084,-11.0711,-11.0721,-11.0651,-11.0585,-11.0502,-11.036,-11.0282,-11.0216,-11.0332,-11.0202,-11.0249,-11.0213,-11.0214,-11.0212,-11.0361,-11.0365,-11.0369,-11.0372,0,-11.168,-11.1605,-11.1553,-11.1475,-11.143,-11.1359,-11.1278,-11.1267,-11.1069,-11.1035,-11.0977,-11.0926,-11.0825,-11.0755,-11.0655,-11.0571,-11.0438,-11.0415,-11.0428,-11.0476,-11.0533,-11.05,-11.0129,-11.0408,-11.0404,-11.0402,-11.04,-11.0398,-11.1924,-11.1929,-11.1812,-11.1759,-11.168,-11.1608,-11.1594,-11.148,-11.1429,-11.1335,-11.1233,-11.1185,-11.1065,-11.0917,-11.0843,-11.0799,-11.0729,-11.0749,-11.0753,-11.0761,-11.0782,-11.0543,-11.078,-11.0779,-11.0778,-11.0777,-11.0776,0,-11.2218,-11.2133,-11.2086,-11.1979,-11.1936,-11.1818,-11.1721,-11.1692,-11.1653,-11.1555,-11.1494,-11.1424,-11.1355,-11.1208,-11.1124,-11.1117,-11.1053,-11.11,-11.1098,-11.108,-11.0851,-11.0847,-11.1153,-11.1153,-11.1153,-11.1153,-11.1153,-11.1153,-11.2367,-11.2368,-11.2279,-11.2238,-11.215,-11.2105,-11.2059,-11.1989,-11.191,-11.1841,-11.1784,-11.169,-11.157,-11.1476,-11.1405,-11.1363,-11.1338,-11.1406,-11.1344,-11.1132,-11.1096,-11.1062,-11.1057,-11.1403,-11.1403,-11.1575,-11.1577,-11.1578]}]]